Flag for Norway Weather past 2 weeks in Kongsvinger, Norway

Now
84 °F

Sunny.


Feels Like: 83 °F
Forecast: 62 / 87 °F
Wind: 5 mph from North

Location: Oslo Gardermoen Airport

Current Time: Jul 24, 2014 at 1:15:45 PM

Latest Report: Jul 24, 2014 at 12:50 PM


Visibility: 10 mi

Pressure: 30.21 "Hg

Humidity: 40%

Dew point: 57 °F

Location of KongsvingerLocation

Historic Weather in Kongsvinger — Graph

°F

Kongsvinger temperature yesterday

Maximum temperature yesterday: 88 °F (at 4:50 PM)
Minimum temperature yesterday: 59 °F (at 4:50 AM)
Average temperature yesterday: 76 °F

Past Weeks' High & Low Weather Summary

 TemperatureHumidityPressure
High88 °F (Jul 23, 4:50 PM)100% (Jul 16, 12:50 AM)30.33 "Hg (Jul 16, 12:50 AM)
Low50 °F (Jul 18, 3:20 AM)24% (Jul 23, 6:50 PM)29.68 "Hg (Jul 14, 1:20 AM)
Average68 °F63%30.04 "Hg
* Reported Jul 9 11:50 AM — Jul 24 11:50 AM, Kongsvinger, Weather by CustomWeather, © 2014

Note: Actual official high and low records may vary slightly from our data, if they occured in-between our weather recording intervals... More about our weather records

Advertising

Kongsvinger weather history for previous 24 hours

 ConditionsComfort  
Time TempWeatherWind HumidityBarometerVisibility
11:50 AM
Jul 24
81 °FSunny.3 mph45%30.21 "Hg10 mi
11:20 AM81 °FPassing clouds.5 mph45%30.21 "HgN/A
10:50 AM81 °FPassing clouds.6 mph45%30.21 "HgN/A
10:20 AM81 °FPassing clouds.7 mph45%30.21 "HgN/A
9:50 AM77 °FPassing clouds.5 mph54%30.21 "HgN/A
9:20 AM75 °FSunny.2 mph57%30.24 "Hg10 mi
8:50 AM70 °FSunny.1 mph64%30.24 "Hg10 mi
8:20 AM68 °FSunny.1 mph69%30.24 "Hg10 mi
7:50 AM68 °FSunny.2 mph64%30.24 "Hg10 mi
7:20 AM64 °FSunny.2 mph68%30.24 "Hg10 mi
6:50 AM63 °FSunny.2 mph73%30.24 "Hg10 mi
6:20 AM61 °FSunny.2 mph72%30.24 "Hg10 mi
5:50 AM63 °FSunny.3 mph68%30.24 "Hg10 mi
5:20 AM64 °FClear.2 mph73%30.24 "Hg10 mi
4:50 AM63 °FClear.5 mph73%30.24 "Hg10 mi
4:20 AM63 °FClear.3 mph68%30.24 "Hg10 mi
3:50 AM63 °FClear.3 mph68%30.24 "Hg10 mi
3:20 AM64 °FClear.5 mph64%30.24 "Hg10 mi
2:50 AM63 °FClear.2 mph68%30.24 "Hg10 mi
2:20 AM63 °FClear.3 mph68%30.24 "Hg10 mi
1:50 AM64 °FPassing clouds.3 mph64%30.24 "HgN/A
1:20 AM66 °FPassing clouds.3 mph60%30.24 "HgN/A
12:50 AM66 °FClear.5 mph64%30.24 "Hg10 mi
12:20 AM68 °FPassing clouds.5 mph56%30.24 "HgN/A
11:50 PM
Jul 23
70 °FClear.3 mph57%30.24 "Hg10 mi
11:20 PM70 °FPassing clouds.3 mph57%30.24 "HgN/A
10:50 PM73 °FPassing clouds.3 mph53%30.24 "HgN/A
10:20 PM77 °FSunny.No wind44%30.21 "Hg10 mi
9:50 PM82 °FSunny.No wind35%30.21 "Hg10 mi
8:50 PM86 °FSunny.2 mph29%30.21 "Hg10 mi
8:20 PM86 °FPassing clouds.3 mph25%30.21 "HgN/A
7:50 PM86 °FSunny.3 mph25%30.21 "Hg10 mi
7:20 PM86 °FPassing clouds.5 mph25%30.21 "HgN/A
6:50 PM88 °FSunny.1 mph24%30.21 "Hg10 mi
6:20 PM86 °FSunny.5 mph25%30.21 "Hg10 mi
5:50 PM86 °FSunny.5 mph27%30.24 "Hg10 mi
5:20 PM88 °FSunny.2 mph27%30.24 "Hg10 mi
4:50 PM88 °FSunny.3 mph27%30.24 "Hg10 mi
4:20 PM86 °FSunny.3 mph33%30.24 "Hg10 mi
3:50 PM86 °FSunny.6 mph31%30.24 "Hg10 mi
2:50 PM84 °FPassing clouds.7 mph33%30.27 "HgN/A
2:20 PM84 °FPassing clouds.8 mph33%30.27 "HgN/A
1:50 PM86 °FPassing clouds.8 mph33%30.27 "HgN/A
1:20 PM84 °FSunny.6 mph35%30.30 "Hg10 mi
Weather by CustomWeather, © 2014

See weather overviewHow to use our weather pages